sat.trackr.live / text

‹ back to catalog

YAOGAN-43 01J

NORAD 60466 · 2024-148J

PAYLOAD ACTIVE UNKNOWN

§ Identity

Operator
Country
PRC
Launch date
2024-08-16
Launch site
XICLF
Launch vehicle
Mass (kg)
RCS (m²)

External: N2YO · Heavens-Above · Gunter

§ Orbital elements

Epoch: 2026-05-24T20:11:29.095872Z

Period
93.77 min
Inclination
34.9912°
Eccentricity
0.0007480
Mean motion
15.35707770 rev/d
Perigee alt
453.7 km
Apogee alt
463.9 km
Semi-major
6,837.0 km
B*
3.6956e-4
RAAN
283.4893°
Arg perigee
44.9877°
Mean anomaly
315.1447°
Rev number
9,884

§ Raw data

YAOGAN-43 01J1 60466U 24148J   26144.84130898  .00013175  00000+0  36956-3 0  99972 60466  34.9912 283.4893 0007480  44.9877 315.1447 15.35707770 98843

JSON: /api/v1/satellites/60466 · /tle

For live sub-satellite position, see the globe view (requires WebGL).

§ Visibility from observer

Set your observer location to see the next 7 days of passes ≥ 10°. The values pass through the URL so the page stays shareable.

No JS? Fill the form by hand. The geolocation button needs JavaScript.